TimeCDT,TemperatureF,Dew PointF,Humidity,Sea Level PressureIn,VisibilityMPH,Wind Direction,Wind SpeedMPH,Gust SpeedMPH,PrecipitationIn,Events,Conditions,WindDirDegrees,DateUTC
12:12 AM,71.6,69.8,94,29.91,1.0,Calm,Calm,-,N/A,,Clear,0,2013-09-03 05:12:00
12:19 AM,71.6,69.8,94,29.91,0.2,Calm,Calm,-,N/A,Fog,Fog,0,2013-09-03 05:19:00
12:53 AM,72.0,70.0,93,29.93,0.8,Calm,Calm,-,N/A,,Clear,0,2013-09-03 05:53:00
1:19 AM,71.6,69.8,94,29.91,2.0,Calm,Calm,-,N/A,,Clear,0,2013-09-03 06:19:00
1:40 AM,71.6,71.6,100,29.91,3.0,Calm,Calm,-,N/A,,Mostly Cloudy,0,2013-09-03 06:40:00
1:46 AM,71.6,71.6,100,29.91,1.5,Calm,Calm,-,N/A,,Mostly Cloudy,0,2013-09-03 06:46:00
1:53 AM,72.0,71.1,97,29.93,0.8,Calm,Calm,-,N/A,,Overcast,0,2013-09-03 06:53:00
2:09 AM,73.4,73.4,100,29.91,1.5,NW,3.5,-,N/A,,Overcast,320,2013-09-03 07:09:00
2:26 AM,73.4,73.4,100,29.91,2.5,Calm,Calm,-,N/A,,Overcast,0,2013-09-03 07:26:00
2:41 AM,73.4,73.4,100,29.91,1.2,Calm,Calm,-,N/A,,Overcast,0,2013-09-03 07:41:00
2:53 AM,73.9,73.0,97,29.94,1.8,Calm,Calm,-,N/A,,Overcast,0,2013-09-03 07:53:00
3:01 AM,73.4,73.4,100,29.92,2.5,Calm,Calm,-,N/A,,Overcast,0,2013-09-03 08:01:00
3:23 AM,73.4,73.4,100,29.92,1.8,Calm,Calm,-,N/A,,Mostly Cloudy,0,2013-09-03 08:23:00
3:53 AM,72.0,72.0,100,29.93,1.8,Calm,Calm,-,N/A,,Partly Cloudy,0,2013-09-03 08:53:00
4:07 AM,71.6,71.6,100,29.91,0.5,Calm,Calm,-,N/A,Fog,Fog,0,2013-09-03 09:07:00
4:21 AM,71.6,71.6,100,29.91,1.2,Calm,Calm,-,N/A,,Clear,0,2013-09-03 09:21:00
4:41 AM,71.6,69.8,94,29.91,0.5,Calm,Calm,-,N/A,Fog,Fog,0,2013-09-03 09:41:00
4:51 AM,71.6,69.8,94,29.92,1.2,Calm,Calm,-,N/A,,Clear,0,2013-09-03 09:51:00
4:53 AM,71.1,70.0,96,29.94,1.2,Calm,Calm,-,N/A,,Clear,0,2013-09-03 09:53:00
5:16 AM,71.6,71.6,100,29.92,0.8,Calm,Calm,-,N/A,,Clear,0,2013-09-03 10:16:00
5:25 AM,73.4,71.6,94,29.92,2.0,South,3.5,-,N/A,,Clear,170,2013-09-03 10:25:00
5:39 AM,73.4,71.6,94,29.93,1.5,Calm,Calm,-,N/A,,Clear,0,2013-09-03 10:39:00
5:53 AM,72.0,72.0,100,29.95,1.8,Calm,Calm,-,N/A,,Clear,0,2013-09-03 10:53:00
6:08 AM,73.4,71.6,94,29.93,0.8,SE,3.5,-,N/A,,Clear,130,2013-09-03 11:08:00
6:14 AM,73.4,71.6,94,29.93,2.0,Calm,Calm,-,N/A,,Clear,0,2013-09-03 11:14:00
6:43 AM,71.6,71.6,100,29.94,1.2,Calm,Calm,-,N/A,,Clear,0,2013-09-03 11:43:00
6:53 AM,72.0,71.1,97,29.96,1.0,Calm,Calm,-,N/A,,Clear,0,2013-09-03 11:53:00
7:03 AM,71.6,71.6,100,29.94,0.5,Calm,Calm,-,N/A,Fog,Fog,0,2013-09-03 12:03:00
7:18 AM,73.4,71.6,94,29.95,2.0,Calm,Calm,-,N/A,,Mostly Cloudy,0,2013-09-03 12:18:00
7:40 AM,75.2,75.2,100,29.95,3.0,Calm,Calm,-,N/A,,Scattered Clouds,0,2013-09-03 12:40:00
7:53 AM,77.0,75.9,96,29.98,4.0,Calm,Calm,-,N/A,,Scattered Clouds,0,2013-09-03 12:53:00
8:48 AM,80.6,75.2,84,29.97,7.0,NNE,3.5,-,N/A,,Mostly Cloudy,30,2013-09-03 13:48:00
8:53 AM,81.0,77.0,88,29.99,7.0,North,4.6,-,N/A,,Scattered Clouds,10,2013-09-03 13:53:00
9:53 AM,84.0,75.0,74,29.99,9.0,ENE,3.5,-,N/A,,Clear,70,2013-09-03 14:53:00
10:53 AM,87.1,75.0,67,30.01,10.0,Variable,3.5,-,N/A,,Clear,0,2013-09-03 15:53:00
11:53 AM,90.0,73.9,59,29.99,10.0,East,6.9,-,N/A,,Clear,80,2013-09-03 16:53:00
12:53 PM,91.9,73.0,54,29.97,10.0,Variable,3.5,-,N/A,,Clear,0,2013-09-03 17:53:00
1:53 PM,93.9,73.0,51,29.96,10.0,Variable,4.6,-,N/A,,Clear,0,2013-09-03 18:53:00
2:53 PM,95.0,72.0,47,29.93,10.0,Variable,3.5,-,N/A,,Clear,0,2013-09-03 19:53:00
3:53 PM,95.0,72.0,47,29.90,10.0,NE,5.8,-,N/A,,Clear,50,2013-09-03 20:53:00
4:53 PM,91.0,72.0,53,29.90,10.0,NNE,12.7,18.4,N/A,,Clear,30,2013-09-03 21:53:00
5:53 PM,90.0,72.0,55,29.90,10.0,NE,4.6,-,N/A,,Clear,40,2013-09-03 22:53:00
6:53 PM,87.1,73.0,63,29.92,10.0,ESE,3.5,-,N/A,,Clear,110,2013-09-03 23:53:00
7:53 PM,79.0,75.0,88,29.94,8.0,Calm,Calm,-,N/A,,Clear,0,2013-09-04 00:53:00
8:53 PM,82.0,75.9,82,29.96,9.0,North,6.9,-,N/A,,Mostly Cloudy,10,2013-09-04 01:53:00
9:53 PM,82.9,73.0,72,29.99,10.0,East,5.8,-,N/A,,Clear,80,2013-09-04 02:53:00
10:53 PM,82.0,73.0,74,30.00,10.0,Calm,Calm,-,N/A,,Clear,0,2013-09-04 03:53:00
11:53 PM,75.9,73.0,91,29.99,8.0,NNW,3.5,-,N/A,,Clear,330,2013-09-04 04:53:00